Theta_e
315 318 322 319 319 320 322 327 326 326 325 323 321 318 315 315 315 317 319 318 316 319 318 316 315 314 316 317 316 316 317 319 321 321 322 327 323 323 324 320 323 322 328 337 338 342 342 342 343 342 343 343 343 343 343 342 341 342 342 340 339 338 335 336 337 337 336 335 336 336 337 337 337 338 339 338 338 339 339 339 339 340 340 339 339 337 333 331 330 329 328 328 327 328 328 329 331
318 319 322 319 319 319 323 327 328 328 326 318 317 317 314 315 317 319 321 320 319 316 316 317 316 316 317 317 315 316 316 316 318 317 320 320 320 324 323 321 324 322 327 335 337 340 341 341 342 342 342 343 343 343 343 341 342 342 342 340 339 337 335 336 337 336 335 334 336 336 336 336 336 338 338 336 336 337 338 338 339 339 339 339 339 339 335 332 331 330 330 330 329 328 327 325 325
318 320 321 319 320 320 328 328 323 327 324 315 316 321 315 315 319 320 321 320 319 315 315 316 316 317 317 319 317 317 319 318 316 318 321 318 320 324 322 323 323 322 326 332 337 339 340 340 341 342 342 343 343 344 343 342 343 342 342 340 339 337 335 337 336 336 335 335 336 335 335 335 335 336 336 335 334 334 335 337 338 338 339 339 339 339 338 336 334 333 333 332 331 329 328 326 325
319 322 319 319 321 325 344 336 328 330 321 318 317 321 322 319 319 320 321 319 316 314 317 317 317 316 315 320 318 317 320 320 316 318 323 320 321 322 321 323 323 323 325 331 335 337 339 339 341 342 341 342 342 343 343 343 342 341 341 340 339 335 336 337 336 336 334 334 335 334 335 335 334 334 334 334 333 332 335 336 338 338 339 339 339 339 338 337 335 333 331 328 328 328 328 327 326
319 322 316 318 324 325 339 330 327 328 318 322 317 316 325 323 320 321 321 318 315 316 319 318 319 315 314 319 318 320 321 319 316 314 319 321 322 321 322 323 323 323 324 329 333 335 338 338 340 342 342 341 341 343 342 342 342 341 340 340 339 335 336 337 336 336 334 334 334 334 335 336 336 336 336 335 333 332 334 336 337 338 338 339 338 338 337 336 333 331 328 327 328 328 328 326 323
318 319 317 315 318 317 325 322 320 323 320 324 318 316 321 320 320 319 319 316 316 316 316 317 318 316 316 318 316 319 320 318 318 316 317 321 323 322 322 323 323 323 323 328 331 333 335 337 340 341 342 341 341 341 340 341 341 342 340 340 339 335 336 337 337 335 334 335 335 335 335 336 337 337 338 337 335 334 334 336 337 338 338 338 338 337 336 334 331 330 330 329 330 329 328 323 317
316 318 322 320 319 319 328 327 324 323 319 318 317 319 318 317 316 316 318 317 317 315 314 317 315 317 318 316 314 315 315 315 318 319 320 320 322 322 323 323 323 324 324 327 330 332 334 336 339 340 342 341 341 340 340 340 341 341 340 340 338 335 336 336 336 335 334 335 335 335 336 336 337 337 338 338 337 335 334 336 337 338 338 337 337 336 334 332 331 331 331 330 330 328 326 323 315
317 319 324 329 331 330 333 328 325 323 316 313 315 318 319 318 314 316 320 317 316 315 317 319 315 318 316 313 317 316 313 316 318 320 321 321 322 323 323 323 324 324 324 326 329 331 332 335 338 339 340 340 340 340 340 340 340 340 340 340 339 335 335 336 335 334 335 335 335 336 336 336 337 337 338 338 338 336 335 336 337 337 338 337 336 334 333 332 332 332 332 330 328 327 324 324 317
317 318 323 329 331 331 331 324 320 320 320 319 318 319 320 317 313 315 319 317 315 317 318 317 316 317 315 315 320 317 315 317 318 321 322 322 323 324 323 323 324 324 325 326 328 331 332 333 336 339 340 340 340 340 340 339 339 339 340 340 339 336 334 336 335 334 335 334 335 337 336 336 336 336 337 338 338 337 336 337 337 337 337 336 335 333 332 332 333 332 331 329 327 327 323 323 318
317 318 323 329 329 325 323 320 320 320 321 321 318 319 318 314 313 315 317 316 314 316 316 314 315 317 317 318 320 316 315 315 317 322 323 324 323 324 323 323 325 326 327 326 328 331 332 332 334 338 339 339 339 340 339 339 339 338 339 339 340 337 334 336 335 334 335 335 334 336 337 335 336 336 337 338 338 338 337 337 336 336 336 336 335 334 333 333 332 331 330 328 326 325 322 321 317
323 325 327 329 326 321 319 321 324 324 323 320 318 318 317 313 314 316 316 315 314 317 315 313 316 319 319 319 322 315 314 316 319 322 323 324 322 324 324 323 324 325 327 327 328 330 333 333 333 336 338 339 339 339 339 339 338 338 338 339 340 338 335 334 335 334 334 335 333 335 336 335 336 336 337 337 338 338 337 336 335 335 336 336 335 334 333 332 332 331 330 327 325 323 320 319 312
322 330 336 334 323 319 320 323 326 331 329 321 316 316 314 313 315 316 315 315 316 319 316 314 314 316 319 320 319 313 313 318 319 320 322 323 323 323 324 324 325 325 326 328 329 330 332 334 333 334 336 338 338 339 339 338 339 338 338 338 340 339 336 333 333 334 334 335 333 334 336 335 336 336 337 337 337 338 337 336 335 335 335 334 334 333 332 332 332 331 329 326 324 321 319 317 307
329 330 334 326 318 319 319 319 324 330 328 319 314 313 310 312 316 314 315 316 315 318 314 312 313 313 317 318 317 315 312 315 318 320 320 322 324 324 325 326 327 327 328 329 330 331 332 333 333 334 335 336 338 339 339 338 339 338 338 338 339 340 338 335 333 334 334 334 333 333 335 336 336 336 337 337 337 337 337 336 335 334 333 334 333 333 332 332 331 330 328 325 323 320 317 315 304
332 332 328 320 315 323 321 317 321 323 319 317 316 313 311 313 315 314 314 316 315 316 312 309 312 315 315 315 320 320 312 311 314 317 318 321 325 326 327 328 329 330 331 331 332 332 332 333 333 334 334 335 337 338 338 338 339 338 338 337 338 339 339 337 335 333 333 334 333 332 334 336 336 336 336 336 337 337 337 336 335 334 333 334 333 332 332 331 330 328 327 324 322 318 315 312 302
325 329 329 324 318 321 318 317 323 322 316 317 315 311 314 313 312 316 314 315 315 312 309 308 310 314 315 314 317 315 309 310 313 315 318 320 323 327 328 328 329 330 332 333 333 333 333 333 333 334 334 335 336 337 337 338 339 338 338 337 337 338 339 338 337 334 332 332 333 332 332 334 335 335 336 336 337 336 336 336 335 334 334 334 333 332 331 329 328 327 327 325 322 316 311 306 299
320 327 327 321 316 315 314 318 322 321 318 318 315 312 316 313 310 314 311 311 314 311 311 312 310 312 315 313 311 307 306 310 313 316 319 320 322 325 327 326 327 327 329 331 332 334 334 334 334 335 334 334 336 336 337 337 338 338 338 338 337 337 338 338 338 336 332 332 333 333 332 333 335 335 335 336 336 335 335 336 335 334 334 333 332 331 329 327 326 326 326 325 322 316 310 302 297
320 329 329 318 314 315 315 319 321 318 321 322 318 313 315 316 312 310 307 309 314 313 314 315 310 310 313 310 307 305 307 309 312 316 318 319 320 321 323 323 323 324 326 327 329 331 333 335 335 335 335 335 335 335 336 337 337 338 338 337 336 336 338 338 338 336 334 332 333 333 332 333 334 335 335 335 335 335 334 334 335 334 333 332 331 330 328 326 325 325 325 325 322 317 310 302 297
330 334 324 316 316 317 318 323 321 317 318 319 316 313 314 317 315 311 309 312 316 315 315 315 311 310 309 306 306 307 307 308 310 312 312 313 313 314 315 315 317 319 321 324 326 328 329 332 335 336 336 335 336 335 335 335 336 338 338 337 336 335 336 336 336 337 335 333 332 332 332 333 334 335 335 335 334 335 334 333 333 333 332 331 331 329 327 325 325 325 325 324 322 319 312 304 298
334 329 316 320 326 319 318 324 322 317 316 316 317 314 313 314 312 311 312 316 317 315 315 316 315 314 309 305 307 308 307 308 308 308 307 306 307 307 308 310 312 312 314 318 322 325 326 328 331 334 336 336 336 335 334 335 335 336 337 337 335 336 337 335 334 336 337 336 334 333 333 333 334 334 334 334 333 335 335 333 332 333 332 331 330 328 326 325 325 326 325 324 323 320 316 307 299
326 323 319 329 330 320 318 322 321 317 314 316 318 312 312 313 311 311 312 315 316 316 316 315 315 314 310 305 304 306 306 306 306 306 305 304 305 305 306 308 310 312 312 312 314 319 323 325 327 330 334 336 336 336 334 334 335 335 335 337 336 335 338 338 336 335 335 336 335 334 333 333 334 335 334 333 332 334 335 334 334 332 331 330 328 327 325 325 326 326 325 324 322 321 319 313 303
318 319 325 327 321 319 320 321 321 318 314 315 318 314 314 313 311 312 312 313 315 315 314 313 312 310 311 307 303 304 304 304 304 304 304 304 305 305 306 307 309 312 313 313 312 313 316 321 324 325 330 333 335 337 335 333 334 335 334 336 337 336 336 337 337 335 333 334 335 335 335 334 334 334 334 334 332 332 333 334 333 332 330 329 328 327 324 325 326 325 325 324 323 321 320 318 310
317 319 324 324 319 317 320 322 320 317 313 314 317 316 314 311 311 313 312 313 313 311 310 310 308 307 309 307 304 303 303 303 303 303 303 303 304 305 306 308 310 313 315 316 314 312 312 314 319 321 326 330 332 334 335 334 333 335 334 333 334 334 335 336 336 334 331 331 333 335 334 334 334 334 334 333 332 332 332 332 332 332 332 331 330 327 325 326 326 325 325 324 322 322 320 319 316
318 320 319 322 320 318 319 319 317 315 314 316 317 313 311 312 312 312 311 312 309 304 304 306 304 303 304 304 303 302 302 302 302 302 302 302 303 304 305 307 309 312 315 317 315 314 312 312 313 316 323 327 329 331 333 333 333 335 335 334 333 333 333 335 335 336 335 334 334 334 333 334 334 333 334 332 332 332 332 331 332 332 332 331 330 328 327 327 326 324 324 324 323 322 321 320 318
318 321 321 319 317 319 320 318 316 315 315 315 313 310 311 314 312 310 310 307 302 301 302 303 303 302 302 302 302 302 301 301 301 301 301 302 302 303 304 306 308 310 312 316 317 315 313 312 311 313 320 325 326 329 331 332 332 334 336 336 335 334 333 333 333 335 336 336 336 335 333 333 333 331 333 334 333 331 331 330 332 332 331 330 330 329 328 327 326 324 323 323 323 322 321 320 318
319 322 322 318 316 321 321 317 316 315 314 311 309 311 313 312 310 310 309 303 301 303 303 302 302 302 301 301 301 301 301 301 300 301 301 301 302 304 306 308 309 310 312 315 317 317 314 312 312 313 317 323 326 328 329 331 332 332 335 336 335 334 332 331 331 332 332 332 334 334 335 335 334 332 332 335 334 332 330 329 331 332 331 329 329 327 326 326 325 324 323 324 323 322 321 320 319
320 321 321 317 316 317 315 315 316 316 314 310 309 314 313 308 308 310 307 302 302 304 303 302 302 302 301 300 300 301 300 300 300 300 300 301 302 304 306 307 308 309 311 314 317 319 317 314 314 315 316 321 325 328 329 331 333 332 333 334 335 335 332 330 330 331 332 332 331 331 333 335 334 332 333 334 333 332 331 330 331 331 328 326 325 324 325 324 324 324 324 324 323 322 321 320 319
317 319 318 316 314 313 313 314 314 313 312 310 311 314 311 307 310 311 306 302 303 308 306 302 301 301 300 300 300 300 300 299 299 299 300 300 301 302 302 305 307 308 311 315 318 319 320 318 317 317 318 320 325 328 329 332 333 333 335 334 332 332 333 332 330 331 332 331 331 331 331 333 334 333 333 333 333 333 333 331 331 329 326 326 325 324 324 323 324 324 323 323 323 322 321 320 318
314 314 315 317 316 314 315 314 311 310 311 311 310 312 311 309 311 310 305 302 304 310 307 302 302 301 300 300 299 300 299 299 299 298 299 299 299 300 301 302 304 308 310 312 317 320 321 321 321 320 319 323 327 328 329 332 333 333 336 335 332 330 330 331 330 330 331 329 330 330 330 332 332 332 333 333 333 333 333 331 329 328 328 327 325 324 324 324 324 324 324 323 322 321 321 320 318
313 312 314 318 318 317 314 312 310 310 311 311 311 314 315 312 310 307 303 303 306 309 306 302 301 300 300 300 299 299 299 298 298 298 298 298 298 299 300 301 303 307 309 312 317 320 322 322 323 322 322 325 328 329 330 331 331 331 332 331 330 328 327 327 328 329 329 328 328 329 329 330 330 331 330 330 329 329 330 329 327 328 328 327 327 326 325 325 325 324 324 322 321 321 320 319 318
313 312 314 316 318 320 313 309 311 310 311 310 311 317 321 312 307 305 302 305 312 311 305 302 301 300 300 299 299 299 298 298 298 297 297 298 298 299 300 302 303 306 310 313 316 319 322 324 324 324 324 326 327 330 332 330 329 328 328 328 327 327 327 327 327 327 327 327 327 327 328 327 328 328 328 328 327 327 327 326 325 326 327 327 326 325 325 324 324 323 323 322 321 320 319 318 317
315 311 318 319 316 324 319 311 313 312 310 309 311 318 321 311 306 305 301 304 315 312 303 301 301 300 299 299 299 298 298 298 297 297 297 297 298 299 300 302 304 307 310 313 314 317 321 323 325 325 325 326 327 328 329 329 328 325 326 326 325 325 325 325 325 324 324 324 325 325 325 325 325 325 325 326 325 325 325 324 324 325 326 325 324 324 323 322 322 321 321 320 320 319 319 318 317
322 314 324 324 316 324 324 313 313 313 309 310 312 318 320 311 305 304 302 303 311 310 302 301 301 300 299 299 298 298 298 297 296 296 297 297 298 298 299 301 303 306 309 312 315 318 321 323 324 325 325 326 326 326 326 326 325 323 323 322 322 322 322 321 321 321 321 321 322 322 322 322 323 323 323 323 324 323 323 323 323 323 324 323 323 322 322 322 321 321 320 319 319 318 317 317 316
324 317 324 327 318 320 320 313 313 313 310 311 313 317 318 312 305 304 303 301 308 309 303 301 300 300 299 298 297 297 297 296 296 296 296 297 297 297 299 300 302 304 307 311 315 317 319 321 323 323 323 324 323 324 324 323 323 322 320 319 320 319 318 318 318 318 318 317 318 318 318 318 319 320 320 320 321 321 320 321 320 320 320 320 320 320 320 319 319 320 319 318 317 317 316 316 315
326 317 318 323 319 317 319 317 314 313 313 313 313 314 315 313 307 305 303 302 308 309 303 301 300 299 298 298 297 296 296 295 295 295 295 296 297 297 298 299 301 303 306 309 312 314 316 318 320 321 321 321 321 322 322 321 322 321 319 318 318 316 314 314 315 316 314 314 314 313 314 314 315 316 316 316 317 317 317 317 318 317 317 317 317 316 316 316 316 316 316 316 316 315 315 314 314
329 322 320 323 318 316 318 317 314 313 315 316 315 316 316 315 311 307 302 302 307 305 301 301 300 299 299 297 297 296 296 295 294 294 294 295 296 297 298 299 301 303 305 308 310 312 314 315 317 319 319 319 319 319 319 318 319 318 317 316 315 312 311 312 313 312 310 311 311 311 312 313 313 313 313 313 314 314 314 314 315 314 314 314 314 314 314 313 313 313 313 313 313 313 312 312 311
326 329 328 327 321 318 318 317 315 313 314 317 316 317 317 315 315 310 302 301 304 303 301 301 300 299 299 298 297 296 295 295 294 293 294 294 295 296 298 299 300 302 304 307 309 312 312 313 315 315 314 315 317 318 317 317 316 315 314 313 311 308 308 310 309 307 307 308 308 308 309 309 310 310 311 311 311 311 311 311 311 311 311 311 311 310 310 310 310 311 311 310 310 310 310 309 308
320 324 325 324 321 319 317 317 317 313 313 318 315 317 317 315 316 309 303 303 304 303 303 301 300 299 298 298 297 296 296 294 294 293 293 294 295 296 297 298 299 301 303 305 307 308 308 311 313 311 311 314 316 316 316 315 313 312 311 309 306 304 305 306 305 303 303 303 304 304 305 305 305 306 306 307 307 307 307 307 308 308 308 308 308 307 308 308 308 308 308 308 307 307 307 306 305
317 318 319 320 319 317 314 314 316 313 314 319 316 317 319 317 315 306 303 307 305 303 303 301 300 299 298 298 297 296 296 294 293 293 293 293 294 294 295 297 298 299 300 302 303 303 305 308 308 308 310 313 314 313 314 312 310 310 307 304 303 302 302 303 301 300 301 301 301 301 301 301 302 302 302 302 303 303 304 304 304 305 305 305 305 305 306 306 305 305 306 305 304 304 303 303 302
315 316 315 317 317 317 317 314 314 313 314 320 318 317 318 317 309 304 303 304 302 300 301 301 300 299 298 297 296 296 296 295 293 292 292 292 292 293 294 294 295 296 297 300 301 302 303 304 304 306 308 309 309 310 310 308 306 306 304 302 302 300 298 299 298 298 299 299 299 299 299 299 300 300 300 300 301 301 301 301 301 302 302 302 303 302 302 302 302 302 302 302 302 301 301 300 299
314 315 315 317 317 319 322 317 315 314 312 316 317 315 317 314 307 304 301 301 300 299 300 300 299 298 297 296 295 295 295 294 293 292 291 291 291 292 292 293 294 295 297 298 300 302 302 302 303 304 305 305 305 305 305 304 303 302 301 300 299 298 296 297 298 297 297 298 297 298 298 298 298 298 299 299 299 299 299 299 299 299 299 299 300 299 299 299 299 299 299 299 300 300 299 298 297
317 317 315 317 318 319 321 318 316 317 314 313 314 317 322 318 313 309 303 300 301 300 299 299 298 297 296 295 294 294 293 293 292 292 290 290 290 291 291 291 292 293 295 296 298 300 301 302 302 302 302 302 303 302 302 302 302 301 300 299 299 298 297 297 296 294 294 294 294 294 295 296 297 297 297 297 298 298 298 298 298 298 298 298 298 298 297 297 297 297 297 297 297 297 297 297 297
321 321 317 316 318 320 320 317 318 322 322 314 311 321 332 326 318 312 304 303 302 301 301 300 298 298 297 297 295 294 293 292 291 291 290 289 289 290 290 290 291 292 293 294 297 299 300 301 301 302 301 301 301 301 301 302 301 301 300 300 298 295 292 291 290 289 289 290 290 290 291 292 293 294 294 294 295 295 295 296 296 296 296 296 296 296 296 296 296 296 296 296 296 296 296 296 296
322 323 318 314 315 319 320 319 320 325 324 314 309 318 329 328 323 313 305 305 304 301 302 300 299 299 298 297 296 295 294 293 291 290 289 289 289 289 289 290 290 291 292 294 297 299 300 301 301 301 301 301 301 301 301 302 301 300 299 297 293 290 288 287 287 287 287 288 288 288 288 288 289 290 290 290 291 291 291 292 292 292 292 291 292 292 292 292 293 294 294 295 295 295 295 295 295
325 320 318 318 316 320 322 320 321 323 320 316 315 317 320 326 324 310 304 308 306 302 302 301 300 299 298 297 296 295 294 293 293 291 289 288 288 288 288 289 290 290 291 293 295 297 298 299 300 300 300 300 300 300 300 300 300 298 296 293 290 288 288 287 287 287 287 288 288 288 287 287 288 288 288 288 288 288 288 288 288 288 288 288 288 288 288 288 289 290 291 291 292 292 293 293 293
324 314 315 319 318 320 321 320 321 318 316 321 323 317 317 325 322 309 305 310 310 307 305 303 301 299 299 297 295 295 294 292 291 291 289 288 288 288 288 289 289 289 290 291 293 294 296 297 298 298 298 298 297 297 297 297 296 295 293 291 289 288 288 287 287 288 287 288 288 287 287 287 287 287 287 287 287 287 287 287 287 287 287 287 287 287 287 287 287 287 287 288 288 288 288 289 289
316 309 313 315 314 317 318 320 322 318 318 326 326 317 318 326 324 314 310 314 315 310 306 303 301 300 299 298 296 294 294 292 290 289 288 288 288 288 288 288 288 288 288 289 290 292 293 294 295 295 294 294 294 294 294 294 293 293 291 290 289 288 288 288 288 288 287 288 288 287 287 287 287 287 287 287 287 287 287 287 287 287 287 286 286 286 286 286 286 286 286 286 286 286 287 286 286
310 313 318 317 317 319 318 320 320 319 324 326 321 316 316 321 326 320 314 317 317 312 308 304 301 301 300 298 296 294 294 293 291 289 288 288 288 287 288 288 288 287 287 288 289 290 291 292 292 292 291 291 291 291 291 291 290 290 289 289 288 288 288 288 288 288 287 288 287 287 287 287 287 287 286 286 286 286 286 286 286 286 286 286 286 286 285 285 285 285 286 286 286 286 286 286 286
313 322 323 320 321 319 319 321 319 322 329 322 313 313 314 318 325 322 315 314 312 310 309 305 301 301 300 298 297 295 294 294 292 290 288 287 287 287 287 287 287 287 287 287 288 289 290 290 291 291 289 289 289 289 289 289 289 289 288 288 288 288 288 288 288 287 287 287 287 287 287 287 287 286 286 286 286 286 286 286 286 285 285 285 285 285 285 285 285 285 285 285 285 285 285 285 285
316 323 323 325 327 324 325 325 320 323 325 315 309 312 314 316 321 320 317 315 309 306 307 304 301 301 299 298 296 295 295 294 293 292 289 287 287 287 287 287 287 287 287 287 287 288 289 289 290 289 288 288 288 288 289 288 288 288 288 288 288 288 288 288 288 287 287 287 287 287 287 286 286 286 286 285 285 285 285 285 285 285 284 284 284 284 284 284 284 284 284 284 284 284 284 284 284
316 322 325 328 331 331 332 327 318 318 317 310 306 311 314 315 316 316 314 311 305 302 304 304 301 300 299 297 295 295 295 294 294 293 290 287 287 287 287 287 286 286 287 287 287 288 288 288 289 288 288 288 288 288 288 288 288 288 288 288 288 288 288 288 288 287 287 287 287 287 286 286 286 285 285 285 284 285 284 284 284 284 284 284 284 284 284 284 284 284 284 284 284 284 284 284 284
315 320 321 323 329 331 330 327 324 321 317 311 307 311 320 319 313 308 305 302 299 300 302 302 301 300 299 297 295 294 294 294 294 293 290 288 288 287 287 287 286 286 286 287 287 288 288 288 288 288 288 288 288 288 288 288 288 288 288 288 288 288 288 288 288 287 287 287 287 287 287 286 286 285 285 284 284 284 284 284 284 284 283 284 284 284 284 284 284 284 284 284 284 284 283 283 283
314 314 317 321 325 325 320 317 319 318 318 316 312 313 320 316 307 301 299 299 298 300 301 301 301 300 298 296 295 294 294 293 293 293 290 288 288 288 287 287 286 286 287 287 287 288 288 288 288 288 288 288 288 288 288 288 288 288 288 288 288 288 288 288 288 288 288 287 287 287 287 287 286 286 285 285 285 284 284 284 284 283 283 283 283 283 283 283 283 283 283 283 283 283 283 283 283
314 314 320 319 317 322 322 312 308 311 318 319 315 316 317 313 310 305 301 302 301 300 301 300 299 299 297 296 294 293 293 293 292 292 290 288 288 288 287 287 286 286 287 287 287 288 288 288 288 288 288 288 288 288 288 288 288 288 288 288 288 288 288 288 288 288 288 288 287 287 287 287 287 286 286 286 285 285 284 284 283 283 283 283 283 283 283 283 283 283 283 283 283 283 283 283 283
317 319 321 314 311 319 322 317 315 315 320 320 316 317 316 315 316 309 304 307 306 301 300 299 298 298 298 296 295 294 293 292 292 290 288 288 289 288 287 287 287 287 287 287 287 288 288 288 288 288 288 288 288 288 288 288 288 288 288 288 288 288 288 288 288 288 288 288 288 287 287 287 287 287 286 286 286 285 284 284 283 283 282 282 282 282 282 282 283 283 283 283 282 282 282 283 282
315 318 315 313 318 320 316 318 322 320 321 323 318 314 313 315 317 314 310 312 310 302 299 299 298 298 297 296 295 294 293 292 291 291 289 288 288 288 288 287 287 287 287 287 287 287 288 288 288 288 288 288 288 288 288 288 288 288 288 288 288 288 288 288 288 288 288 288 288 287 287 287 287 286 286 286 286 285 284 284 283 282 282 282 282 282 282 282 282 282 282 282 282 282 282 282 282
312 312 311 313 319 321 317 318 320 320 322 323 320 315 315 316 316 317 316 313 309 304 300 299 299 298 297 297 295 294 294 292 291 291 289 288 288 289 288 287 287 287 287 287 287 287 287 288 288 288 288 288 288 288 288 288 288 288 288 288 288 288 288 288 288 288 288 288 288 287 287 287 286 286 286 285 285 284 284 283 282 282 282 282 282 282 282 282 282 282 282 282 281 281 281 281 281
314 314 314 314 314 315 317 315 315 320 323 324 322 318 317 317 314 316 319 312 305 304 303 300 298 298 297 297 296 295 294 292 291 291 289 288 288 289 288 287 287 287 287 287 287 287 287 288 288 288 288 288 287 287 288 288 287 288 288 288 288 288 288 288 288 288 288 287 287 287 287 286 286 286 285 285 284 283 283 282 282 281 281 281 282 282 282 282 282 282 282 281 281 281 281 280 280
314 316 316 316 315 316 319 317 314 315 318 321 321 318 318 317 310 311 315 310 304 302 303 301 299 298 298 297 296 295 294 293 291 290 289 288 288 289 288 287 287 287 287 287 287 287 287 287 288 288 288 287 287 287 288 287 287 287 288 288 288 288 288 288 288 287 287 287 287 286 286 286 285 285 284 284 283 282 282 281 281 281 281 281 281 281 281 281 281 281 281 281 281 281 280 280 280
Wind_Speed
8 7 8 7 6 4 2 3 2 1 3 2 1 0 1 2 1 1 2 2 1 2 2 1 2 1 1 1 2 3 3 3 3 2 0 3 3 2 9 8 3 11 22 28 30 27 25 24 21 20 20 18 17 16 15 15 14 14 13 11 9 8 10 10 10 10 11 11 10 10 10 10 10 9 9 8 8 8 8 8 8 9 9 10 10 10 10 11 11 11 12 11 11 11 10 9 8
7 6 8 6 5 2 1 2 2 2 4 3 1 1 2 2 1 2 3 2 3 2 1 2 2 0 1 1 1 1 1 4 3 1 2 5 5 2 8 9 3 10 21 27 30 28 26 25 23 21 20 19 18 17 16 15 14 14 13 11 10 9 10 10 10 10 10 11 10 11 10 10 10 9 9 8 9 8 8 8 7 7 8 9 10 9 8 9 9 10 10 9 8 8 7 7 6
8 6 8 5 3 3 1 3 2 1 3 3 1 3 1 1 3 4 5 5 5 2 1 1 1 1 2 2 0 2 1 3 3 2 3 5 3 1 7 10 3 9 20 25 29 29 27 26 24 22 20 20 19 17 16 15 15 14 13 11 10 10 11 10 10 10 10 11 10 10 10 9 9 9 9 8 9 9 8 8 7 7 7 8 9 9 8 8 8 8 8 7 7 6 5 4 4
8 6 8 3 1 3 3 3 1 3 3 2 1 2 2 3 4 5 6 5 5 3 1 2 0 2 2 2 1 1 2 3 3 4 2 4 3 2 6 11 5 10 20 24 28 29 28 26 25 22 20 20 19 18 16 15 15 13 12 12 10 10 12 11 10 10 10 10 10 10 9 8 7 7 7 7 8 9 8 7 7 7 7 8 8 8 6 5 5 6 6 6 7 7 8 8 7
7 5 7 2 2 2 2 3 2 3 2 4 2 2 3 4 4 4 5 5 4 2 2 2 0 1 1 1 1 2 2 1 2 5 3 4 4 2 7 11 6 10 18 22 26 28 28 27 25 23 21 21 19 18 17 15 15 14 12 12 11 10 12 11 11 10 10 9 9 9 8 7 6 5 5 5 6 7 7 6 6 6 7 8 7 7 4 4 4 4 5 6 9 11 12 13 11
6 3 6 6 3 1 2 3 3 2 3 4 3 3 4 4 5 4 6 5 2 1 1 1 1 0 0 2 2 3 2 1 2 4 3 4 5 1 7 10 7 9 16 20 23 26 27 27 25 24 22 22 20 18 18 16 15 14 13 12 11 11 12 12 11 10 10 10 9 9 8 7 6 6 5 5 5 5 6 6 6 6 7 7 6 6 3 4 6 7 9 11 14 16 17 16 15
7 3 4 5 2 2 3 3 3 2 2 3 2 3 4 4 3 2 5 3 1 1 2 1 0 2 0 3 2 4 4 3 3 3 5 6 7 1 7 10 8 9 14 18 20 24 25 26 25 24 23 22 20 18 18 17 15 14 13 12 10 11 12 12 11 10 10 10 10 9 8 7 6 6 6 5 6 6 6 6 6 7 8 7 5 4 4 4 7 10 12 14 17 18 18 18 17
7 4 0 3 2 3 3 2 2 2 0 2 3 4 4 4 2 1 3 2 1 1 2 2 1 2 1 2 1 3 3 3 5 7 9 8 6 1 6 10 8 8 13 16 18 20 23 25 25 24 23 21 20 19 18 17 15 14 13 12 10 11 12 11 12 11 10 10 11 9 8 7 6 6 6 6 6 6 7 6 6 7 7 6 3 3 4 4 7 8 11 15 18 18 18 18 18
6 4 0 3 2 3 2 1 0 2 2 3 3 4 4 3 2 1 2 2 1 1 3 3 1 2 2 2 2 4 3 5 7 7 7 5 3 0 5 8 8 7 10 15 16 18 21 24 25 24 22 21 20 19 17 17 15 14 14 12 10 11 12 11 11 11 10 10 11 9 8 7 6 5 5 5 6 7 7 8 7 7 6 5 4 3 2 4 6 6 11 16 17 17 18 17 17
5 5 1 2 2 2 2 0 1 1 3 4 3 6 4 2 2 1 0 1 2 2 3 1 1 2 2 2 2 2 6 9 7 5 5 3 2 1 4 7 7 6 7 12 15 16 18 21 24 24 23 21 20 19 18 17 16 15 14 13 11 10 12 12 11 12 11 10 11 9 8 7 5 5 4 5 6 7 7 8 6 5 5 5 2 0 3 6 7 8 13 16 17 17 16 16 16
3 4 2 3 3 2 1 2 2 2 4 4 3 5 4 3 2 1 0 1 2 3 3 1 1 1 0 2 2 2 9 11 7 6 5 3 1 1 3 6 6 6 6 9 13 14 15 18 22 24 23 22 21 20 19 17 17 16 15 14 12 11 12 12 12 12 11 11 11 10 8 7 6 5 5 5 6 7 7 6 4 3 4 3 1 3 5 7 9 11 15 16 15 15 15 15 14
2 3 3 4 2 2 2 2 3 4 5 3 1 2 1 3 1 1 1 2 2 4 3 2 1 2 1 3 2 3 12 15 10 8 6 3 1 1 3 5 6 6 7 8 11 13 14 16 20 23 24 23 21 20 20 18 17 16 16 15 13 12 12 13 12 12 12 11 11 10 9 8 7 6 5 6 6 8 8 6 4 4 4 2 1 3 6 9 11 13 16 16 15 14 14 13 11
2 1 4 3 2 2 2 1 3 3 4 1 1 1 1 2 0 2 3 0 2 4 3 3 1 1 0 2 3 3 9 16 13 9 8 6 3 1 3 5 5 5 6 8 10 11 12 14 17 21 23 23 22 21 20 19 18 17 16 17 15 13 13 13 13 13 13 12 11 11 10 8 7 7 6 6 6 8 7 6 5 4 3 1 2 5 8 10 12 15 16 16 15 15 14 12 10
2 2 4 3 0 1 3 0 2 0 1 3 1 2 1 1 1 3 3 3 2 1 2 1 3 1 0 2 4 2 6 16 14 8 8 7 6 3 2 4 4 5 5 7 9 10 11 12 15 18 21 23 22 21 21 20 19 18 17 17 16 14 13 13 13 13 13 12 11 12 12 10 9 8 7 7 7 7 7 5 5 4 2 1 4 7 9 11 13 15 16 16 15 15 14 10 8
3 2 4 4 1 1 2 0 1 3 2 3 1 2 2 1 2 1 2 2 2 3 2 1 3 1 0 1 3 3 11 18 13 8 8 6 6 5 3 3 3 4 4 6 8 10 11 12 13 16 19 22 22 21 21 21 20 19 17 17 17 16 14 14 13 13 14 13 12 12 13 12 10 9 8 8 7 6 6 5 5 4 2 4 5 7 10 12 13 15 16 17 16 16 13 9 6
3 3 4 3 1 0 2 2 2 3 2 3 1 1 2 2 2 1 2 1 2 2 3 2 2 1 1 2 3 8 15 17 13 8 6 5 5 4 3 3 3 4 5 6 7 9 11 12 13 14 17 20 22 22 21 21 21 20 18 18 17 17 15 14 14 14 14 14 13 13 13 13 12 10 9 8 7 7 6 6 6 5 4 4 4 8 11 12 12 15 16 17 17 16 13 8 5
3 4 4 3 1 1 3 4 3 2 2 4 4 2 3 4 2 1 1 2 2 3 4 3 2 1 3 2 10 15 15 14 11 8 6 6 6 5 4 4 5 4 4 6 7 8 10 12 13 14 15 16 19 22 22 22 22 21 19 19 18 17 16 15 15 14 14 14 14 13 14 14 12 11 10 8 8 9 7 7 7 6 6 3 4 9 11 11 12 15 16 17 18 16 13 8 6
4 3 3 1 2 3 4 6 6 3 2 4 3 1 2 3 3 2 1 2 4 3 4 4 4 3 1 7 15 16 14 14 14 14 14 15 14 12 11 10 9 7 5 5 6 8 10 12 13 15 15 15 16 19 22 23 23 22 20 20 19 17 17 17 16 15 15 14 14 14 14 15 14 12 11 9 9 9 8 7 7 9 7 4 6 9 10 11 13 15 16 17 18 17 15 10 7
3 3 2 2 5 4 4 6 5 3 1 4 4 0 2 2 1 2 2 3 6 6 6 4 4 4 5 14 18 17 17 20 20 21 22 20 18 17 18 16 14 11 9 7 7 7 9 11 14 16 16 16 15 16 20 22 23 22 21 22 20 18 17 17 16 17 17 16 15 14 14 15 14 13 11 10 9 10 10 8 8 10 7 8 10 8 9 11 13 15 16 17 17 17 16 12 8
1 3 2 4 5 3 4 5 5 4 1 3 4 0 2 3 2 1 1 4 4 3 6 3 2 4 6 10 16 20 20 23 24 24 23 20 19 17 18 18 17 15 13 11 9 9 11 12 13 15 16 16 15 15 17 20 22 22 21 21 20 18 18 18 17 18 18 18 17 15 14 15 14 14 12 11 9 10 11 10 10 10 9 11 10 8 9 11 12 14 16 17 17 17 17 14 11
2 3 3 4 3 1 4 6 6 4 2 2 3 2 2 2 2 1 1 3 4 3 5 3 3 4 4 6 12 18 20 22 23 24 22 21 20 19 18 17 16 15 13 11 10 9 12 14 14 14 15 15 15 15 16 19 20 20 21 19 19 19 18 17 18 19 18 17 17 16 14 15 16 15 13 11 10 9 11 12 12 12 12 11 9 11 11 10 11 14 16 16 16 16 17 16 13
1 1 3 4 3 2 4 5 4 3 3 2 3 4 3 1 2 3 3 2 3 2 3 1 2 3 4 5 8 13 16 17 19 21 21 20 20 21 21 19 18 16 15 13 10 8 9 14 16 14 13 14 16 16 16 17 19 19 19 19 18 18 19 18 20 23 20 16 16 17 16 16 16 16 14 13 12 11 11 14 17 14 11 9 9 12 11 8 9 13 15 15 16 16 16 16 15
1 2 1 3 4 3 3 2 3 3 2 2 3 3 2 2 3 2 4 2 1 4 4 5 6 6 6 8 9 10 12 12 14 17 17 18 19 19 21 21 20 19 17 16 13 9 6 10 15 15 12 12 15 16 16 17 18 18 17 16 15 14 15 16 18 19 18 18 18 17 17 17 17 16 16 16 16 14 12 16 18 14 9 9 10 11 10 7 7 11 15 16 16 16 16 16 15
3 2 2 1 3 4 3 1 2 3 2 5 1 3 3 2 4 0 2 2 4 5 6 8 9 10 10 11 11 10 11 12 13 15 16 17 17 17 19 21 21 20 19 18 17 12 7 5 11 14 11 9 12 14 15 16 17 17 16 16 15 12 11 11 15 14 13 17 20 20 19 19 18 17 16 18 19 16 11 13 14 13 10 10 11 11 9 8 7 9 14 15 15 16 16 16 15
3 3 2 1 3 5 5 3 4 4 5 3 1 3 5 3 2 1 4 4 4 3 6 7 7 11 12 11 10 9 10 13 16 17 19 19 19 20 23 24 22 22 22 21 19 15 10 4 4 9 9 8 10 12 13 15 15 14 14 14 13 12 9 8 11 13 13 13 14 18 20 20 19 17 16 17 17 14 12 13 15 16 10 8 8 7 7 8 9 10 13 14 14 15 16 16 15
3 4 2 1 3 5 4 5 5 5 4 2 2 5 4 1 1 2 2 3 2 3 7 6 6 10 10 8 9 10 11 14 16 18 19 22 24 26 26 26 24 23 22 21 20 17 13 7 2 3 5 6 7 10 10 12 12 12 12 11 10 11 10 7 8 11 13 11 10 11 13 18 19 16 15 17 17 16 17 18 16 12 5 2 2 3 6 8 9 10 12 13 13 15 16 16 15
3 4 3 4 4 5 3 5 4 3 4 4 5 6 2 2 1 2 1 3 2 5 8 7 8 10 8 7 8 10 12 14 16 18 21 25 27 27 26 26 25 23 21 21 21 18 15 11 8 5 4 7 7 7 8 10 10 9 10 9 6 8 8 6 6 8 11 11 9 9 11 12 15 14 16 19 19 18 17 15 10 5 3 3 2 3 4 6 8 9 10 11 12 14 16 16 15
2 1 3 5 6 5 3 4 4 2 3 4 6 4 2 3 2 1 2 4 2 6 8 8 8 7 6 7 7 10 11 14 18 20 20 22 23 24 24 25 24 22 21 22 20 18 17 16 14 10 9 10 7 5 6 8 7 6 7 6 1 3 3 1 2 4 8 9 7 9 10 9 13 13 14 17 17 16 14 11 7 3 4 4 4 4 3 4 8 10 10 9 11 13 15 15 15
1 2 3 7 7 6 5 4 3 1 1 2 4 2 4 4 2 1 3 3 4 8 7 7 7 5 5 6 6 8 11 15 18 19 18 19 20 21 22 22 21 21 21 20 19 19 18 19 18 16 15 13 9 8 8 8 7 6 4 3 1 1 2 3 2 3 5 6 5 6 6 5 9 10 10 10 10 11 10 9 8 5 4 4 6 7 7 6 7 8 8 8 10 12 13 14 14
1 3 3 5 7 6 4 2 3 2 0 1 1 2 4 2 2 5 4 1 5 8 6 5 5 4 5 4 5 7 11 15 16 18 19 20 20 20 21 21 20 21 20 20 20 21 19 19 19 19 18 15 13 12 11 12 9 5 6 6 4 3 5 5 4 5 5 5 4 4 4 1 3 5 5 5 5 4 5 6 7 5 3 4 6 8 8 7 6 7 8 8 9 10 12 13 14
1 2 2 3 2 4 6 2 3 1 1 3 2 2 3 2 3 7 6 0 6 6 4 4 4 4 4 4 5 5 9 13 15 18 20 20 20 20 20 21 21 21 21 22 21 21 21 21 20 20 19 16 16 15 15 16 13 11 13 13 14 13 13 14 14 13 13 12 9 8 7 5 4 2 1 1 1 2 1 3 3 2 2 3 5 6 6 6 6 7 8 9 9 10 12 13 14
3 1 3 2 1 5 7 3 0 1 1 5 4 2 4 2 2 6 5 2 7 7 3 4 4 5 5 5 6 5 7 12 17 21 21 20 20 20 20 20 22 22 22 23 22 22 23 23 23 22 22 20 19 17 17 20 20 22 22 23 24 22 22 23 22 21 21 20 18 17 15 13 12 10 8 6 5 5 5 5 6 6 5 4 4 5 5 5 4 5 7 9 10 10 11 13 14
3 0 3 2 2 3 6 3 1 1 1 4 3 1 3 1 1 5 4 3 6 7 4 5 4 5 5 5 5 5 6 9 15 20 21 20 19 19 20 20 21 22 22 23 23 24 25 25 25 26 26 25 25 23 22 23 23 25 27 27 27 26 27 27 26 24 25 25 24 23 21 21 20 17 15 13 10 10 10 9 9 9 8 6 4 4 5 5 5 5 6 7 9 9 11 11 12
3 1 2 3 3 2 4 2 2 4 2 1 2 1 5 3 1 4 5 4 5 7 4 4 4 4 5 4 5 5 6 6 9 16 19 18 18 18 19 20 21 22 23 24 24 25 26 26 27 29 29 29 29 28 28 28 26 26 28 28 27 28 29 29 27 25 27 27 26 26 24 24 24 22 20 18 17 16 15 14 12 12 11 10 8 7 8 8 7 6 6 6 7 8 9 9 10
3 2 2 3 3 3 4 4 2 4 3 1 1 2 8 4 3 4 5 4 6 6 3 3 4 4 4 4 4 4 5 6 8 13 16 17 17 18 19 21 21 22 23 24 24 25 26 27 27 29 30 31 31 31 31 31 29 29 29 29 29 30 30 28 26 27 28 27 26 25 23 23 23 22 21 20 19 18 17 17 15 14 13 11 10 10 10 10 9 8 7 7 7 7 8 8 9
6 5 4 3 3 4 4 5 4 1 2 4 4 5 9 5 2 3 3 4 5 4 3 3 3 3 3 3 3 4 5 5 8 12 15 16 17 18 19 20 21 22 23 24 25 26 26 26 27 28 29 29 30 30 30 30 30 30 30 30 30 31 30 28 27 27 28 26 25 24 23 22 21 20 19 18 18 18 17 17 16 15 13 12 12 12 12 11 10 9 8 8 8 8 8 9 10
5 4 3 4 4 5 3 3 5 1 1 5 4 4 7 5 2 2 1 2 4 4 3 3 3 3 3 3 3 3 4 4 8 13 16 17 18 18 19 20 21 23 24 25 26 26 26 25 26 27 26 26 27 27 27 27 27 27 28 30 31 31 29 27 28 28 28 27 26 25 24 23 22 21 20 19 18 18 17 17 16 15 14 14 14 14 13 11 10 9 8 8 8 9 10 10 12
4 4 3 3 4 5 4 2 4 1 3 4 2 2 8 4 0 3 2 2 3 2 2 3 2 2 2 2 3 3 3 4 8 13 16 18 18 18 19 20 22 23 24 25 26 26 26 26 27 27 25 25 25 25 25 27 28 27 29 32 32 32 30 29 30 30 29 28 27 26 26 25 24 24 23 21 20 20 19 18 18 17 16 16 15 14 13 11 11 10 9 9 8 10 10 10 13
2 3 2 4 4 3 4 2 4 3 2 3 3 3 7 2 2 3 3 3 2 2 2 2 2 2 2 2 3 3 3 4 6 10 14 17 17 18 19 21 21 22 23 25 25 26 27 28 28 28 27 26 27 27 27 29 31 30 32 33 32 33 34 32 32 32 29 29 29 28 27 26 25 25 24 22 22 22 21 21 20 19 19 18 17 16 16 15 15 14 13 12 10 11 10 10 13
3 3 3 4 2 2 3 2 3 3 1 1 2 4 6 0 3 3 4 3 2 3 3 3 2 2 2 2 2 3 4 4 4 6 10 14 15 17 18 18 20 22 23 25 25 26 27 27 28 29 29 29 30 30 31 33 33 33 34 34 33 34 34 32 31 32 30 30 30 30 29 27 26 26 25 24 24 24 23 22 21 20 20 20 19 19 20 20 19 18 18 16 15 15 13 12 13
4 5 6 5 4 5 5 2 3 2 3 1 2 4 5 0 1 1 2 1 2 2 2 3 2 2 2 2 3 3 3 3 3 4 6 11 13 14 15 16 18 22 23 24 25 26 26 26 26 27 28 29 30 31 31 32 33 34 34 33 32 32 32 31 31 33 32 33 33 32 31 29 28 28 27 26 25 25 24 23 22 21 21 20 20 20 20 20 20 19 19 19 18 18 16 15 14
3 5 10 10 6 6 3 1 2 3 3 2 3 2 4 3 1 1 1 1 1 2 2 2 2 2 2 2 3 3 2 2 3 3 5 8 10 11 13 15 18 21 22 23 26 27 27 26 25 25 26 27 27 27 27 28 29 30 30 30 31 33 33 32 32 33 34 34 34 33 32 31 30 29 29 28 27 26 25 24 23 22 22 22 21 20 20 20 19 19 18 18 18 18 16 17 18
2 4 8 9 6 6 4 3 3 1 2 1 2 1 4 5 3 1 1 1 2 1 1 1 0 2 2 1 2 1 2 2 2 3 5 7 8 9 12 14 17 20 21 24 26 28 28 28 28 27 26 26 26 25 24 25 27 29 30 33 34 36 36 32 31 33 33 34 33 32 32 32 31 30 30 29 28 27 26 25 25 24 24 24 22 22 23 22 21 20 19 18 18 17 17 18 19
3 3 5 7 7 7 6 6 4 2 2 3 2 2 2 4 3 2 0 1 1 1 1 2 2 1 1 1 1 1 1 1 1 2 3 5 6 8 11 14 17 19 21 24 27 29 29 30 30 29 29 28 27 26 25 25 28 32 34 37 37 37 36 33 31 32 32 31 31 31 31 30 30 29 29 28 27 26 26 26 25 25 25 24 24 24 24 23 22 21 20 20 19 19 19 19 18
4 3 6 6 6 6 5 6 3 0 1 3 4 1 1 4 3 3 3 1 3 2 5 5 4 3 2 2 1 0 0 1 0 0 1 4 6 8 10 13 16 18 21 24 27 28 30 31 31 31 30 30 29 28 28 28 30 33 35 37 38 36 34 33 31 30 30 29 30 30 29 29 28 27 27 26 26 25 25 24 23 23 24 23 23 23 22 21 21 21 21 21 20 21 21 20 19
3 6 7 5 5 5 4 5 3 2 1 4 5 3 2 4 4 2 2 2 5 5 6 6 5 4 3 3 3 2 2 1 1 1 2 4 6 9 11 14 16 17 20 23 26 28 30 31 31 31 31 30 30 29 30 30 30 32 34 36 36 34 32 31 30 29 28 28 28 28 27 27 26 26 25 25 24 24 23 22 22 22 22 21 21 21 20 20 20 20 20 19 19 19 19 20 19
6 7 6 6 5 4 3 2 3 2 2 5 5 2 2 2 4 3 3 4 5 6 5 5 5 5 5 5 4 4 3 2 1 1 3 5 7 9 11 14 15 16 19 22 25 27 29 30 30 31 31 30 30 30 30 31 31 32 33 33 34 32 30 29 29 29 27 27 27 27 26 25 25 24 24 23 23 22 21 21 21 20 20 20 20 20 19 19 19 18 18 17 18 18 18 18 18
5 4 4 4 2 3 3 4 3 1 4 5 2 1 2 3 4 4 5 5 5 8 8 9 10 8 8 6 5 5 4 3 2 1 3 5 7 9 11 13 14 16 18 21 23 26 28 29 29 31 30 29 30 29 30 30 30 30 31 31 31 30 29 28 29 28 27 26 26 25 24 24 23 23 22 22 22 20 20 19 19 19 19 19 19 18 18 17 17 17 17 17 17 17 17 17 17
3 4 5 4 1 3 2 3 1 2 5 3 1 1 2 5 6 5 6 6 6 5 5 9 13 12 9 7 5 5 4 3 3 2 3 5 7 9 10 11 13 15 17 20 22 25 27 28 28 30 30 29 29 29 29 29 29 28 28 29 29 29 28 28 28 27 26 25 25 24 24 24 23 23 22 22 21 19 19 18 18 18 18 18 18 17 17 17 17 17 17 17 17 17 17 17 17
4 5 4 4 3 3 1 3 2 3 3 2 1 1 2 3 5 5 5 4 4 3 2 4 10 12 10 8 6 5 4 4 4 3 3 6 8 9 9 11 13 15 17 20 22 25 27 27 28 30 29 28 27 28 28 28 28 27 27 27 28 27 28 28 27 26 25 24 24 24 24 23 23 22 21 20 19 19 19 19 18 18 18 18 18 18 18 18 18 18 18 18 18 18 18 18 17
3 3 5 5 5 4 3 3 2 3 2 2 2 1 3 3 2 3 2 2 3 2 3 2 5 7 7 6 5 5 5 4 4 4 5 8 9 9 10 11 13 16 18 20 23 25 26 27 27 29 29 27 26 26 27 27 27 26 26 26 26 26 26 26 25 24 23 22 22 22 22 21 21 20 19 18 18 17 18 18 18 18 18 19 19 19 19 19 20 20 20 20 20 20 20 20 19
1 2 5 3 4 4 2 3 5 3 2 3 2 3 4 3 1 3 2 2 3 2 2 3 5 6 6 5 5 5 5 5 5 5 5 8 10 10 11 12 14 16 18 20 23 25 26 27 27 27 27 26 25 25 26 26 25 25 25 25 25 24 24 24 23 22 21 21 20 20 20 19 19 19 18 18 17 17 17 18 18 18 19 19 19 19 20 20 21 21 21 21 21 21 22 22 22
2 2 3 4 3 6 4 2 2 3 1 3 2 2 4 1 1 3 3 2 3 2 2 5 6 6 7 6 6 6 7 6 6 6 6 9 12 12 13 14 15 17 19 21 23 25 26 27 27 27 26 25 24 24 24 23 23 23 22 22 22 21 21 21 20 20 19 19 19 19 19 18 19 19 19 19 19 19 19 19 20 20 20 20 21 21 21 22 22 23 23 23 23 23 23 23 23
5 3 5 3 2 4 3 1 2 3 2 4 1 3 3 0 2 2 2 2 4 3 3 4 5 7 8 8 7 8 8 7 6 6 8 11 13 13 15 16 17 19 20 22 24 24 25 25 25 26 25 25 24 22 22 21 20 20 20 19 19 18 18 18 17 17 16 17 18 17 17 18 18 19 20 20 20 21 21 21 22 23 23 23 23 23 24 24 25 25 25 25 25 25 26 26 25
4 4 3 3 3 2 2 2 1 1 3 4 2 3 3 4 4 2 4 8 8 5 4 6 8 10 10 10 9 10 9 7 6 6 7 11 14 15 17 17 18 19 21 22 23 23 24 24 23 24 23 23 22 20 20 18 17 18 17 16 16 15 15 15 14 14 14 15 16 16 16 17 18 18 19 19 20 20 20 20 21 22 23 23 24 24 25 26 26 26 26 27 26 27 27 27 27
3 1 2 2 2 3 2 2 2 2 2 4 4 3 3 5 5 7 10 11 10 9 7 9 12 13 13 11 11 11 10 9 8 7 7 11 15 17 18 20 20 21 22 22 23 22 23 23 22 22 22 21 20 18 17 17 15 15 14 14 13 12 11 11 11 11 12 13 14 14 16 17 17 18 18 19 20 20 20 20 21 22 22 23 24 24 25 26 26 27 27 28 28 28 28 28 28
2 2 1 0 1 2 1 1 2 3 3 2 3 5 5 4 3 7 9 8 10 12 12 12 12 12 12 11 11 11 10 8 8 7 8 12 16 18 20 21 21 21 21 21 22 22 22 23 22 22 21 20 19 17 16 14 14 13 12 11 10 8 8 8 8 9 11 12 13 14 15 16 17 18 19 20 20 21 21 22 22 23 23 24 24 25 26 27 27 28 28 28 29 29 29 30 30
5 4 5 5 4 4 2 2 0 2 2 4 3 5 7 3 2 4 4 4 7 10 10 10 10 11 12 12 11 9 7 7 7 7 9 13 17 20 21 21 21 21 22 22 23 23 23 23 22 21 21 20 18 16 14 13 12 10 9 8 7 6 5 5 6 8 9 11 12 14 15 16 18 19 20 21 21 21 22 23 23 23 24 24 25 25 26 27 27 28 28 28 29 29 30 30 31
Wind_Direction
337 335 338 339 337 333 359 53 84 332 68 84 305 73 239 238 291 287 287 285 314 234 211 255 201 168 242 194 207 209 187 179 173 106 29 241 318 349 183 180 167 176 177 178 175 176 176 175 180 183 180 181 183 186 187 184 183 183 185 185 179 171 159 154 154 152 150 147 142 140 139 137 137 138 133 131 130 126 121 112 109 110 107 108 103 98 96 97 95 91 86 81 81 84 85 85 87
342 334 343 343 347 1 214 61 98 343 52 86 257 176 270 303 317 243 233 219 205 218 222 256 227 257 337 150 175 167 224 222 202 184 272 285 320 309 186 181 178 179 178 179 178 178 179 178 181 185 184 184 185 186 189 186 184 189 192 189 184 174 161 161 162 158 155 150 144 144 143 141 142 143 141 139 134 130 127 122 120 119 117 114 107 101 96 97 96 96 89 76 73 71 71 72 76
342 331 343 344 6 33 76 44 98 55 77 92 293 232 295 314 239 240 227 224 225 259 321 228 209 193 92 25 311 121 322 259 232 218 270 298 324 347 186 182 171 177 179 181 181 181 182 181 182 185 187 188 187 187 189 187 188 193 194 194 192 177 164 167 168 162 158 154 149 147 145 144 145 143 144 143 138 138 135 132 132 129 124 113 106 101 95 94 93 94 84 68 60 46 37 30 25
341 336 343 334 96 34 61 44 126 121 109 149 338 252 252 203 233 252 243 247 250 284 306 160 174 203 125 356 285 127 314 277 226 205 253 327 335 335 181 179 172 173 179 183 184 184 185 185 183 184 189 192 191 191 191 191 194 198 197 197 198 180 168 171 173 167 163 158 151 150 146 141 141 137 140 142 140 139 137 139 140 136 126 113 104 98 83 71 73 78 75 57 34 15 5 353 335
345 346 354 31 133 40 99 70 96 100 153 181 105 249 239 216 240 263 266 285 269 231 167 142 66 267 140 263 172 139 276 275 252 225 241 336 343 328 176 178 174 171 179 184 186 187 189 188 186 185 190 193 194 195 196 198 200 204 202 199 201 183 172 176 177 174 167 160 156 154 148 140 138 132 132 134 135 138 141 144 144 140 129 115 101 93 64 13 23 38 36 10 356 351 348 345 334
359 10 26 61 104 100 124 93 106 102 197 176 121 232 245 225 230 265 290 308 284 208 136 86 67 28 214 264 216 206 237 340 303 244 243 323 344 347 178 182 175 172 179 185 189 191 192 192 190 188 192 196 196 199 202 205 205 208 206 204 206 187 178 180 181 180 170 167 165 156 147 144 145 146 147 140 134 141 148 147 146 142 132 118 106 94 48 10 22 7 352 348 345 344 343 342 338
8 7 31 62 65 44 101 121 155 155 183 178 161 228 255 250 222 295 316 346 30 347 19 19 80 92 18 306 289 240 253 269 283 283 288 311 327 312 181 185 178 174 180 187 192 194 195 195 195 191 194 199 199 201 204 207 209 212 211 209 209 194 184 185 185 182 174 173 167 157 153 153 158 165 165 160 148 147 152 150 149 142 132 123 114 90 56 43 34 2 344 343 340 339 339 338 339
15 11 345 75 33 29 85 117 181 192 356 237 237 235 245 259 203 109 327 6 40 337 359 310 283 95 332 341 326 267 279 274 287 299 300 307 318 298 185 188 183 177 183 191 194 197 199 199 199 196 197 202 202 203 207 209 211 215 216 214 211 200 189 188 192 184 178 177 168 161 163 164 171 177 172 173 163 156 159 158 151 137 130 129 128 102 84 53 31 1 336 336 334 332 334 334 338
26 26 146 76 78 36 47 82 210 238 280 268 259 257 260 269 184 143 344 353 323 311 304 287 305 18 325 329 274 280 342 337 315 315 321 323 320 198 185 188 186 186 188 195 197 199 201 202 203 201 201 205 204 205 210 211 212 218 220 220 216 208 196 193 197 189 183 184 176 168 172 177 178 180 181 184 174 170 166 158 150 139 143 159 156 120 58 8 14 355 333 332 329 327 330 331 334
34 24 116 78 83 55 15 221 264 238 259 266 266 262 259 248 183 191 6 343 328 313 288 260 63 348 319 292 292 333 359 344 336 347 359 3 350 110 181 187 185 190 197 201 201 203 204 205 206 205 205 207 207 207 212 212 212 217 221 224 222 214 206 200 202 195 189 192 188 178 182 185 183 187 193 193 183 178 169 157 154 155 169 183 179 16 340 347 355 345 335 330 325 325 327 329 332
36 4 90 79 74 101 187 207 272 277 278 297 290 267 238 200 175 129 82 314 308 309 291 109 113 204 357 301 259 11 15 6 5 11 9 31 21 158 186 192 192 190 196 204 204 206 208 208 209 209 209 209 211 211 214 216 215 218 220 225 223 219 215 209 206 204 200 200 198 190 191 189 191 199 202 205 194 184 174 162 161 173 181 193 247 323 336 344 343 340 335 329 325 325 326 330 332
62 348 59 81 117 174 192 194 271 290 304 329 350 305 189 172 143 109 43 321 316 332 291 185 165 159 35 326 261 357 29 27 12 1 354 3 2 212 203 203 205 201 192 200 203 206 209 210 211 212 213 212 213 215 217 219 219 220 223 225 224 220 220 218 213 211 209 207 208 201 199 198 201 207 210 214 204 190 178 171 171 168 172 193 285 329 338 338 337 339 337 333 328 327 328 331 334
106 131 79 86 156 157 146 178 275 303 327 317 187 305 170 167 210 189 160 48 326 357 321 217 178 118 234 288 308 339 32 22 7 357 341 333 333 292 235 222 217 216 203 202 204 206 209 211 213 215 216 215 216 218 219 221 222 222 225 227 227 224 222 225 222 217 216 215 215 211 209 210 211 215 218 219 212 196 183 178 175 171 177 196 329 336 335 334 338 341 340 337 333 331 331 333 334
128 152 104 107 90 134 158 78 297 183 276 253 280 314 289 223 207 183 128 35 307 208 317 230 152 127 241 305 329 324 360 359 359 350 332 323 325 327 281 253 237 233 222 215 213 214 214 214 215 217 218 218 218 220 222 223 224 223 226 229 230 230 227 229 231 226 222 221 221 218 217 219 222 222 224 224 217 207 199 193 187 195 213 293 328 331 330 333 339 341 341 340 337 335 336 336 330
127 129 89 109 57 27 177 130 132 134 176 248 321 335 350 328 150 121 137 79 286 220 293 278 160 257 250 4 317 317 337 346 354 349 334 321 325 337 330 310 282 267 245 229 223 222 221 221 220 220 221 221 221 222 224 225 226 227 227 232 233 232 232 233 235 236 231 226 227 223 222 225 229 227 229 227 220 218 212 214 221 222 261 298 315 324 323 329 338 340 341 341 340 341 343 339 326
117 109 72 90 93 348 191 170 145 127 210 239 278 79 38 315 155 110 233 154 282 289 345 257 185 303 178 126 339 343 346 352 359 357 352 333 330 336 339 351 326 293 274 257 237 228 225 227 226 225 225 224 225 224 226 227 228 229 228 232 236 235 236 237 237 239 239 235 232 229 227 229 233 234 233 231 225 223 218 228 236 231 260 284 318 321 317 329 339 340 339 340 342 345 345 337 324
67 77 71 62 133 207 194 180 179 153 246 265 318 40 74 306 284 263 270 68 290 304 347 269 234 270 183 63 0 358 360 4 7 15 32 19 7 1 352 357 351 321 288 279 265 251 236 232 231 230 230 228 227 226 227 228 229 230 232 233 236 238 238 241 242 240 242 241 238 236 235 236 238 238 235 235 227 220 221 230 238 248 261 285 325 314 321 336 341 339 337 339 344 347 345 333 320
55 76 86 30 191 192 181 182 193 173 272 264 310 44 133 301 320 313 338 33 332 329 314 296 321 289 185 18 9 13 20 24 32 43 45 36 28 20 7 356 351 338 313 284 269 268 257 245 237 233 234 232 229 228 227 229 229 228 231 234 234 237 240 242 244 241 241 242 241 241 242 243 245 247 240 237 231 225 228 226 235 251 254 265 290 311 338 341 336 334 334 339 345 347 346 335 318
79 114 79 248 202 209 194 176 192 195 262 264 290 348 156 242 274 351 317 304 341 345 307 343 352 305 1 10 15 28 37 40 44 47 45 39 31 23 11 2 358 346 329 303 270 258 259 254 246 238 235 233 229 228 228 228 231 230 229 235 235 234 241 246 247 244 241 240 239 238 245 249 250 252 247 245 242 231 233 238 238 241 242 261 283 322 346 332 329 329 330 338 342 346 347 340 322
129 119 88 244 212 236 227 193 207 211 255 294 296 74 155 238 227 347 285 285 330 320 288 336 346 311 343 358 16 25 35 41 41 43 40 35 30 24 12 4 0 354 344 324 296 267 255 253 252 246 239 234 227 226 228 227 229 232 231 235 238 233 236 241 245 246 243 242 237 233 240 248 252 253 248 251 251 232 232 239 236 239 255 271 294 331 332 321 323 326 329 335 339 344 346 343 332
140 127 169 221 189 254 229 202 220 220 210 257 290 330 296 239 175 177 151 316 315 253 258 264 298 335 347 349 15 21 31 34 32 35 32 27 23 18 13 7 2 359 355 340 316 284 259 250 249 247 242 235 228 226 227 227 226 231 232 233 237 237 236 236 242 247 246 243 239 237 240 246 251 252 247 247 253 248 242 244 243 252 268 282 308 321 318 315 320 328 328 331 337 341 343 343 338
135 203 184 186 153 253 243 196 216 197 159 247 299 316 301 149 138 165 153 280 287 316 324 346 31 50 41 11 16 21 30 30 27 28 24 21 17 13 11 10 8 8 7 359 342 310 267 248 244 241 240 234 232 229 225 226 225 229 235 235 237 236 237 238 240 242 244 246 243 238 239 244 249 250 246 247 250 247 249 253 246 243 262 284 297 301 304 304 318 333 329 330 336 337 341 341 339
164 272 239 203 179 228 251 167 201 170 106 282 269 301 329 30 331 168 152 236 323 21 27 67 64 69 64 42 32 25 27 27 28 25 21 18 14 12 10 10 10 9 10 9 3 346 295 248 237 232 232 233 235 232 228 225 222 226 235 242 245 241 239 247 252 246 243 245 244 242 243 240 242 247 246 247 243 232 243 254 240 230 254 280 282 284 284 284 307 335 331 329 334 334 336 338 337
114 251 290 222 187 222 238 141 195 176 218 260 264 333 311 332 301 291 88 23 41 44 56 69 67 61 56 48 37 29 27 25 26 25 25 21 17 16 14 15 15 12 13 14 15 9 347 263 230 224 220 227 234 231 229 225 222 222 228 239 243 238 234 247 259 262 262 253 244 246 249 241 238 244 245 246 239 223 232 250 238 236 258 275 279 275 271 283 306 331 331 324 328 331 330 332 333
124 219 266 149 199 246 267 291 272 237 241 251 79 288 273 257 219 28 11 31 45 60 58 54 67 57 47 44 35 30 29 25 20 20 23 21 20 22 23 22 19 19 18 16 19 22 18 3 226 216 208 210 226 230 226 223 225 223 223 234 240 242 242 252 260 265 283 283 258 247 243 238 240 245 244 246 240 224 232 252 246 241 250 273 284 284 288 304 311 323 326 320 325 327 324 327 328
203 193 238 254 274 291 294 279 269 252 244 149 166 270 289 299 130 70 354 54 49 63 58 36 53 50 42 39 32 31 30 25 17 16 19 20 23 22 22 22 21 20 17 20 24 28 33 30 55 163 182 175 203 224 220 216 223 224 224 232 241 245 241 254 269 265 277 292 287 271 254 237 236 243 244 245 247 244 246 252 248 242 253 310 333 354 330 323 320 324 327 321 324 325 322 323 325
183 171 226 250 294 306 264 252 263 250 247 180 218 272 315 318 52 114 319 45 43 58 50 28 47 46 37 36 33 34 33 27 20 21 20 19 21 17 16 19 21 21 19 25 30 35 45 49 60 78 117 135 167 208 209 208 210 211 220 224 241 259 244 235 251 266 286 297 291 298 300 258 242 250 248 246 248 247 248 244 235 253 320 347 6 27 13 343 322 314 314 317 324 324 321 321 323
126 138 286 288 319 306 272 291 294 272 257 184 193 252 340 360 43 121 347 29 54 69 52 28 44 37 29 35 33 36 32 29 26 27 23 14 14 12 14 16 18 24 25 26 32 43 54 60 67 73 90 111 133 158 173 189 185 181 211 215 210 291 275 246 240 259 288 302 289 291 307 274 253 258 252 252 244 229 234 236 219 253 320 323 327 339 347 317 300 297 304 319 328 324 322 322 324
113 53 337 307 345 332 313 337 316 308 298 163 163 264 347 19 51 305 351 70 73 66 55 30 40 29 27 32 32 39 31 29 29 28 22 16 17 17 19 20 23 29 33 35 42 51 60 65 70 78 90 102 108 129 149 153 154 145 152 175 139 24 43 50 358 311 301 310 308 305 314 260 242 251 249 257 247 222 225 235 225 229 283 296 306 315 314 314 313 313 318 328 333 328 324 324 325
274 43 34 316 352 333 305 358 334 341 89 3 77 287 313 353 326 318 326 142 78 56 47 29 32 25 28 28 32 39 31 29 29 25 23 23 25 26 26 28 35 38 43 49 52 56 65 73 77 82 94 102 102 114 129 132 148 136 100 115 112 73 75 77 58 28 13 9 357 350 2 312 243 248 244 248 257 251 240 240 240 236 274 301 313 323 325 334 338 328 323 323 330 331 328 326 327
322 9 41 360 356 286 294 330 334 2 74 14 80 223 264 244 328 341 337 89 100 77 47 35 31 29 27 26 33 32 30 30 28 26 26 28 29 32 33 34 43 48 52 57 59 63 71 81 85 88 94 100 101 101 101 106 113 100 90 96 94 90 87 83 77 69 65 62 56 53 50 47 52 45 326 278 290 345 302 281 315 340 350 344 336 334 333 337 336 329 322 319 321 323 324 326 327
32 332 307 348 165 267 308 327 33 145 13 22 101 200 272 198 316 343 353 37 103 95 61 46 35 32 31 25 32 27 24 26 26 27 27 29 32 35 37 40 47 52 57 63 68 74 79 85 90 93 96 100 102 101 96 94 93 91 90 90 87 86 83 82 80 78 77 75 72 69 66 67 68 62 55 47 41 41 28 12 14 7 356 348 330 329 332 331 337 333 322 318 319 321 325 328 329
360 106 244 272 199 276 322 331 346 4 71 15 68 191 282 183 270 331 16 46 89 89 62 48 38 35 39 30 33 29 21 19 20 21 22 29 33 37 43 46 51 56 62 69 74 79 84 89 94 95 96 100 101 103 103 99 95 93 91 88 86 85 83 81 80 79 78 76 75 74 72 72 70 66 63 60 58 55 50 44 34 26 20 11 358 357 358 355 353 341 326 321 320 323 324 325 330
308 42 219 247 213 219 307 297 341 19 89 28 39 170 259 213 114 355 17 40 78 83 62 52 48 40 42 34 38 33 27 26 13 11 16 26 35 42 50 53 57 62 67 73 78 81 85 90 95 96 97 100 102 103 104 102 100 98 93 89 86 83 81 81 80 78 76 75 75 75 74 72 69 68 66 65 65 62 60 58 53 50 47 44 44 44 40 33 26 18 3 344 329 322 317 318 322
194 169 186 249 239 217 263 265 286 7 22 316 328 252 260 242 88 27 13 41 80 87 78 71 57 46 47 37 42 37 31 33 14 10 19 30 38 46 54 59 62 67 72 77 82 86 88 90 96 100 101 102 102 103 102 102 102 99 95 93 88 83 80 78 76 75 74 73 72 72 71 70 69 69 68 67 66 64 63 62 62 61 58 57 57 55 54 48 41 33 20 3 347 333 326 330 332
169 170 154 180 231 244 237 243 258 301 330 281 245 242 263 268 22 26 15 47 83 95 82 70 54 48 47 39 42 38 42 32 12 19 29 36 42 49 57 63 66 70 76 80 86 90 90 93 98 100 101 104 106 105 103 102 100 97 95 91 86 81 80 78 75 74 73 71 71 69 67 67 68 68 68 67 66 67 68 67 67 65 63 61 57 57 54 46 37 28 19 9 355 346 343 343 344
130 134 139 182 221 261 246 244 286 279 194 273 249 241 269 270 303 345 344 55 73 75 72 66 56 53 41 46 46 37 45 27 19 31 37 41 47 53 60 65 70 74 77 81 86 88 89 94 98 96 98 105 107 106 106 103 99 95 92 89 86 82 81 81 77 74 73 72 71 70 68 68 68 69 69 69 69 71 72 71 69 67 64 59 55 54 47 38 32 26 23 16 3 358 354 352 352
114 140 183 242 226 250 262 246 308 334 185 269 348 290 275 259 253 341 357 69 54 41 77 76 61 62 42 47 43 33 38 17 25 31 33 40 46 52 59 64 68 70 73 78 82 84 88 93 94 93 97 102 103 103 104 101 98 98 95 91 89 85 83 82 79 76 75 75 72 70 69 68 67 68 67 66 67 66 65 64 62 61 60 56 55 53 48 44 39 33 28 21 17 11 4 3 3
142 136 171 259 234 248 288 303 336 3 181 264 5 326 276 256 77 23 35 70 56 24 60 66 61 65 40 40 39 34 33 17 21 24 26 34 41 49 58 62 66 71 74 80 84 86 90 91 92 95 98 100 100 101 103 102 101 102 99 95 93 88 83 82 81 78 77 75 73 71 69 68 66 66 64 63 62 61 60 60 59 58 56 54 53 52 49 46 40 36 31 24 24 23 20 18 15
187 159 175 245 223 188 269 285 321 2 93 258 354 315 280 221 75 43 47 72 74 46 54 57 53 69 55 50 46 41 40 24 18 16 20 30 39 47 54 59 67 74 78 82 86 89 91 93 95 98 100 101 102 103 104 105 104 102 100 97 95 91 86 84 83 79 77 75 73 71 69 68 68 67 65 64 63 63 62 62 61 59 58 54 53 52 49 46 41 38 34 29 26 24 25 23 18
232 199 203 231 210 207 237 275 306 349 26 18 28 324 295 260 117 84 61 85 71 35 56 63 44 56 63 57 49 42 42 28 24 17 12 26 37 46 54 62 70 75 79 82 87 91 94 97 100 102 104 105 106 107 107 108 107 105 103 100 97 92 86 83 80 76 75 75 73 73 72 72 71 70 69 67 66 66 65 64 63 61 60 56 54 52 50 46 42 38 35 32 32 29 26 24 19
272 225 213 221 206 202 226 33 31 15 357 354 44 349 296 317 320 170 146 95 57 23 53 63 36 43 53 49 39 30 35 31 34 32 22 32 44 54 62 68 73 76 80 85 91 95 98 101 103 106 108 109 110 111 113 114 112 111 108 102 96 90 83 78 77 76 77 77 76 76 76 75 74 73 72 71 70 69 68 66 64 63 61 59 56 54 51 47 43 40 37 34 34 32 28 29 24
275 238 206 208 182 164 167 129 106 114 253 318 49 172 261 308 316 210 162 119 54 37 50 29 8 58 59 57 33 18 19 23 31 36 38 46 53 62 67 72 77 82 87 92 96 99 101 103 104 106 108 110 112 114 118 118 114 110 105 99 95 92 88 84 83 83 82 82 81 79 77 76 75 75 74 73 72 71 70 69 68 66 65 63 60 58 56 55 52 50 46 42 39 35 31 35 30
225 228 154 158 165 171 171 149 153 203 246 323 357 156 239 287 279 298 89 136 27 9 285 270 210 148 90 84 29 30 3 2 29 25 37 52 62 70 74 79 85 91 95 98 100 101 103 104 105 106 107 109 111 113 115 114 110 106 102 100 97 96 95 93 91 89 87 86 84 80 78 76 74 73 72 71 70 70 69 69 68 67 66 64 61 60 59 57 57 55 54 51 48 43 41 41 38
234 179 117 134 152 156 145 133 154 201 44 298 296 167 234 272 267 338 19 291 292 254 232 230 203 197 179 164 210 205 255 260 172 89 50 64 74 82 86 91 96 99 100 101 102 103 105 106 106 107 107 108 110 110 109 108 107 106 104 103 101 99 99 98 95 93 90 88 84 81 79 76 74 72 70 69 67 66 65 64 64 63 62 60 59 58 56 54 52 51 50 49 49 48 47 45 42
183 121 93 78 78 88 98 113 129 73 70 243 247 192 203 275 279 326 46 270 254 220 220 217 193 199 195 184 198 191 202 217 176 130 102 91 95 98 102 105 104 105 105 105 106 107 107 108 109 108 107 108 109 109 108 106 106 106 105 106 104 103 101 99 97 92 88 86 83 80 77 75 73 71 69 67 65 63 62 60 59 58 57 56 54 53 51 49 47 45 44 43 43 43 42 41 40
134 110 77 60 44 44 51 63 91 69 290 251 247 215 182 261 276 232 188 230 207 176 193 203 184 196 202 199 196 189 190 189 181 127 113 113 114 115 115 114 112 111 111 110 110 110 111 111 110 109 108 109 110 109 109 107 107 106 106 106 105 103 101 97 93 87 84 82 79 76 74 72 70 68 66 64 62 60 58 56 55 54 53 51 49 46 44 42 41 40 38 37 36 36 34 33 32
110 98 92 96 8 13 29 358 41 100 254 258 282 326 177 214 258 235 220 241 201 172 182 183 182 195 200 197 194 191 192 185 183 155 134 132 128 127 124 120 119 119 117 114 114 114 114 114 113 112 110 111 111 110 109 108 106 105 105 103 101 98 96 91 86 81 77 75 73 71 69 67 65 63 61 59 57 54 52 51 49 47 45 43 42 39 37 35 33 31 29 28 28 28 26 23 22
84 99 104 109 354 11 9 315 326 208 249 269 339 351 214 227 249 234 214 221 215 202 194 179 178 187 193 193 191 189 189 184 184 182 169 157 147 142 136 130 127 124 121 120 119 118 118 117 117 115 113 112 111 110 108 106 104 103 101 99 96 93 89 84 81 78 74 70 68 65 62 60 58 55 53 51 48 45 44 42 39 38 36 34 32 30 27 24 23 22 20 20 18 18 18 15 14
159 149 127 125 101 70 277 273 286 260 259 280 313 311 242 257 262 233 203 210 225 229 245 199 183 184 186 185 182 184 188 188 190 189 189 181 169 160 150 141 136 132 129 127 125 124 122 122 120 117 115 114 112 110 107 104 102 100 97 95 92 89 85 81 78 75 72 68 64 61 59 56 53 50 47 44 40 37 36 34 31 29 27 24 22 20 18 16 15 14 12 12 10 9 9 6 4
179 166 128 141 148 152 216 219 211 246 279 312 305 237 193 203 266 267 237 278 298 266 259 234 190 181 171 169 173 181 189 192 197 196 199 195 181 170 162 154 147 141 138 135 132 130 127 125 123 120 119 117 114 111 107 104 101 99 95 92 88 85 82 79 76 73 69 65 61 58 56 53 50 47 43 39 34 30 28 26 23 21 19 16 13 12 10 8 8 7 6 6 4 2 2 0 358
206 144 110 150 179 151 163 184 172 185 292 296 244 224 220 193 251 316 325 315 328 320 244 189 180 170 155 169 184 186 196 200 199 197 203 199 187 180 175 166 158 151 146 142 138 136 132 129 127 124 122 120 116 112 108 106 104 100 95 90 86 83 80 78 75 70 65 61 57 53 51 48 45 40 36 31 26 23 20 18 16 14 12 9 7 6 4 3 2 1 360 359 358 356 355 354 353
150 140 169 209 178 119 118 188 102 83 284 270 201 236 291 335 277 315 19 350 328 340 204 181 176 168 168 187 194 195 203 202 200 198 197 195 191 189 184 175 167 160 154 149 144 141 138 135 132 128 125 123 119 115 112 110 107 102 96 92 88 84 80 76 72 67 61 56 52 48 43 39 35 30 25 21 16 13 11 10 8 7 6 4 3 2 0 359 358 357 356 355 354 351 350 350 348
124 177 205 184 121 88 102 178 23 49 246 274 258 227 263 195 249 314 18 287 266 238 205 183 179 181 188 198 199 203 208 204 202 198 193 195 194 193 189 182 175 167 160 155 150 146 143 139 136 133 130 127 123 120 117 114 109 104 99 95 89 83 78 72 67 62 55 49 45 40 34 29 26 21 15 11 8 5 4 2 1 1 360 359 358 357 356 355 354 353 352 351 350 348 346 346 345
117 183 184 113 129 129 96 142 198 214 246 287 287 243 239 196 204 208 207 225 221 201 198 194 194 195 197 200 202 207 209 204 201 194 193 197 196 195 191 185 180 173 166 159 154 150 147 143 140 137 133 130 128 126 122 117 112 107 103 97 90 82 76 69 62 54 45 40 36 31 25 20 17 13 8 5 2 359 357 356 355 355 354 353 353 353 351 351 350 349 348 347 347 345 343 342 342
34 60 54 41 130 150 147 148 159 180 233 290 288 282 257 222 201 183 198 211 193 177 192 204 204 201 198 199 198 203 205 200 195 192 194 195 195 197 193 187 183 177 170 164 159 156 152 149 146 143 139 136 134 132 127 122 118 112 107 101 93 84 74 64 54 43 33 30 27 20 15 12 8 3 1 359 356 354 353 352 351 350 350 349 348 348 348 347 347 346 346 345 344 343 342 340 339
109 108 128 161 87 101 165 150 111 134 175 228 275 284 267 241 195 186 202 211 186 181 192 203 207 203 202 203 201 203 202 196 193 190 190 191 194 197 195 191 186 178 173 169 165 163 160 158 155 150 146 144 141 138 133 130 126 121 114 106 99 87 73 56 42 31 23 20 15 9 7 4 359 356 354 353 351 350 349 348 348 347 347 347 346 345 345 344 343 343 342 342 340 339 338 337 335
156 172 186 179 150 119 140 240 192 114 174 189 198 271 271 248 182 189 205 213 196 192 194 199 204 202 203 207 204 202 198 193 195 190 185 187 192 197 196 192 187 182 178 175 172 170 168 165 162 157 154 151 148 145 143 141 138 134 125 115 107 91 70 44 25 17 12 10 6 2 359 356 352 350 349 347 346 345 345 344 345 344 344 343 343 343 343 342 341 340 338 338 337 336 334 333 332